This is the latest recevied weather packets stored in our database for station/object KQ4LLM. If no packets are shown the sender has not sent any weather packets the latest 10 day(s).
| Time | Temp. | Humidity | Pressure | Rain* | Wind** | Luminosity | Snow |
|---|---|---|---|---|---|---|---|
| 1777598470 | 19.44° C | 39% | - | 0 mm | - | - | - |
| 1777598169 | 19.44° C | 40% | - | 0 mm | - | - | - |
| 1777597863 | 19.44° C | 41% | - | 0 mm | - | - | - |
| 1777597562 | 19.44° C | 41% | - | 0 mm | - | - | - |
| 1777597253 | 18.89° C | 43% | - | 0 mm | - | - | - |
| 1777596948 | 18.89° C | 55% | - | 0 mm | - | - | - |
| 1777596645 | 18.89° C | 51% | - | 0 mm | - | - | - |
| 1777596342 | 18.33° C | 55% | - | 0 mm | - | - | - |
| 1777596039 | 18.33° C | 51% | - | 0 mm | - | - | - |
| 1777595734 | 18.89° C | 54% | - | 0 mm | - | - | - |
| 1777595429 | 19.44° C | 52% | - | 0 mm | - | - | - |
| 1777595126 | 19.44° C | 51% | - | 0 mm | - | - | - |
| 1777594822 | 19.44° C | 47% | - | 0 mm | - | - | - |
| 1777594519 | 19.44° C | 53% | - | 0 mm | - | - | - |
| 1777594215 | 19.44° C | 52% | - | 0 mm | - | - | - |
| 1777593911 | 19.44° C | 46% | - | 0 mm | - | - | - |
| 1777593608 | 20° C | 48% | - | 0 mm | - | - | - |
| 1777593303 | 19.44° C | 49% | - | 0 mm | - | - | - |
| 1777592998 | 19.44° C | 50% | - | 0 mm | - | - | - |
| 1777592692 | 19.44° C | 53% | - | 0 mm | - | - | - |
| 1777592388 | 20° C | 50% | - | 0 mm | - | - | - |
| 1777592083 | 20.56° C | 56% | - | 0 mm | - | - | - |
| 1777591781 | 20.56° C | 45% | - | 0 mm | - | - | - |
| 1777591476 | 20.56° C | 45% | - | 0 mm | - | - | - |
| 1777591172 | 21.11° C | 45% | - | 0 mm | - | - | - |
* Rain latest hour (hover to see other rain measurements)
** Current wind speed in m/s (hover to see current wind gust speed)